DW2786 Weather Reports


time (UTC)temp
F
wind
direction
speed
knots
gust
knots
rain 1hr
in
rain 24hr
in
rain mn
in
humidity
%
barometer
mb
20260510225336 71 317 0.9 1.7 0.00 0.00 0.00 58 1017.0
20260510224827 71 333 0.0 2.6 0.00 0.00 0.00 58 1017.0
20260510224557 71 333 0.0 2.6 0.00 0.00 0.00 59 1016.4
20260510224543 71 0 0.0 2.6 0.00 0.00 0.00 58 1014.9
20260510224317 72 68 0.9 1.7 0.00 0.00 0.00 58 1017.0
20260510223827 72 36 0.9 2.6 0.00 0.00 0.00 57 1017.0
20260510223311 72 271 0.9 2.6 0.00 0.00 0.00 59 1017.2
20260510223048 71 292 0.0 1.7 0.00 0.00 0.00 60 1016.6
20260510223037 71 346 0.0 1.7 0.00 0.00 0.00 60 1015.1
20260510222819 72 311 0.0 1.7 0.00 0.00 0.00 61 1017.1
20260510222309 71 46 0.9 1.7 0.00 0.00 0.00 61 1017.1
20260510221819 71 360 0.0 3.5 0.00 0.00 0.00 62 1017.2
20260510221538 70 0 0.0 3.5 0.00 0.00 0.00 61 1015.3
20260510221322 71 360 1.7 3.5 0.00 0.00 0.00 60 1017.3
20260510220812 71 350 0.0 2.6 0.00 0.00 0.00 61 1017.2
20260510220321 71 65 0.9 2.6 0.00 0.00 0.00 62 1017.1
20260510220058 70 5 0.0 2.6 0.00 0.00 0.00 61 1016.5
20260510220040 70 0 0.0 3.5 0.00 0.00 0.00 61 1015.1
20260510215809 71 16 0.0 3.5 0.00 0.00 0.00 62 1017.2
20260510215318 71 355 0.9 3.5 0.00 0.00 0.00 62 1017.1
20260510214829 71 5 0.9 3.5 0.00 0.00 0.00 61 1017.0
20260510214540 71 150 0.0 2.6 0.00 0.00 0.00 61 1015.0
20260510214537 71 36 0.0 2.6 0.00 0.00 0.00 61 1016.4
20260510214339 71 252 0.9 2.6 0.00 0.00 0.00 61 1016.9
20260510213829 71 259 0.9 1.7 0.00 0.00 0.00 63 1016.8
20260510213312 71 126 0.0 2.6 0.00 0.00 0.00 62 1016.7
20260510213059 71 128 0.0 2.6 0.00 0.00 0.00 63 1016.1
20260510213038 71 0 0.0 2.6 0.00 0.00 0.00 63 1014.7
20260510212820 71 330 0.0 2.6 0.00 0.00 0.00 63 1016.6
20260510212328 71 298 0.9 2.6 0.00 0.00 0.00 63 1016.6
20260510211817 72 51 0.9 2.6 0.00 0.00 0.00 64 1016.6
20260510211545 71 337 0.0 2.6 0.00 0.00 0.00 63 1015.9
20260510211538 71 0 0.0 2.6 0.00 0.00 0.00 63 1014.5
20260510211347 71 55 0.9 2.6 0.00 0.00 0.00 63 1016.5
20260510210809 71 37 0.9 3.5 0.00 0.00 0.00 64 1016.5
20260510210318 71 340 0.0 3.5 0.00 0.00 0.00 64 1016.4
20260510210057 71 31 0.9 3.5 0.00 0.00 0.00 64 1015.8
20260510210036 71 24 0.9 2.6 0.00 0.00 0.00 63 1014.3
20260510205827 71 5 0.9 2.6 0.00 0.00 0.00 64 1016.4
20260510205315 71 22 0.9 3.5 0.00 0.00 0.00 64 1016.4
20260510204819 72 16 0.9 3.5 0.00 0.00 0.00 65 1016.4
20260510204553 71 34 0.9 2.6 0.00 0.00 0.00 64 1015.8
20260510204536 71 0 0.0 2.6 0.00 0.00 0.00 64 1014.3
20260510204311 72 323 0.9 2.6 0.00 0.00 0.00 64 1016.4
20260510203820 72 16 0.0 1.7 0.00 0.00 0.00 65 1016.4
20260510203329 72 326 0.9 2.6 0.00 0.00 0.00 65 1016.3
20260510203038 71 22 0.9 2.6 0.00 0.00 0.00 64 1015.7
20260510203033 72 19 0.0 2.6 0.00 0.00 0.00 64 1014.2
20260510202812 72 337 0.9 2.6 0.00 0.00 0.00 64 1016.4
20260510202321 72 5 0.0 1.7 0.00 0.00 0.00 65 1016.5
20260510201831 72 5 0.0 1.7 0.00 0.00 0.00 64 1016.6
20260510201604 72 5 0.0 1.7 0.00 0.00 0.00 64 1016.0
20260510201542 72 0 0.0 1.7 0.00 0.00 0.00 64 1014.5
20260510201321 72 5 0.0 1.7 0.00 0.00 0.00 64 1016.5
20260510200830 73 5 0.0 1.7 0.00 0.00 0.00 64 1016.7
20260510200313 73 62 0.0 2.6 0.00 0.00 0.00 64 1016.6
20260510200046 72 348 0.9 2.6 0.00 0.00 0.00 64 1016.0
20260510200038 72 348 0.0 2.6 0.00 0.00 0.00 63 1014.5
20260510195821 73 30 0.0 1.7 0.00 0.00 0.00 65 1016.5
20260510195331 73 17 0.9 1.7 0.00 0.00 0.00 64 1016.6
20260510194821 73 15 0.0 3.5 0.00 0.00 0.00 63 1016.6
20260510194536 73 5 0.0 3.5 0.00 0.00 0.00 63 1014.5
20260510194503 73 5 0.0 3.5 0.00 0.00 0.00 64 1016.0
20260510194311 73 5 0.9 3.5 0.00 0.00 0.00 63 1016.6
20260510193819 74 12 1.7 3.5 0.00 0.00 0.00 62 1016.4
20260510193323 74 21 1.7 3.5 0.00 0.00 0.00 62 1016.6
20260510193054 74 15 0.9 2.6 0.00 0.00 0.00 62 1016.0
20260510193039 74 15 0.9 3.5 0.00 0.00 0.00 60 1014.6
20260510192812 75 5 0.9 3.5 0.00 0.00 0.00 62 1016.6
20260510192341 75 17 1.7 3.5 0.00 0.00 0.00 59 1016.7
20260510191857 76 22 2.6 3.5 0.00 0.00 0.00 58 1016.7
20260510191557 76 15 0.9 2.6 0.00 0.00 0.00 58 1016.1
20260510191533 77 349 0.9 2.6 0.00 0.00 0.00 57 1014.6
20260510191316 77 24 1.7 2.6 0.00 0.00 0.00 56 1016.8
20260510190821 78 5 1.7 4.3 0.00 0.00 0.00 57 1016.8
20260510190330 77 59 1.7 5.2 0.00 0.00 0.00 58 1016.7
20260510190044 77 47 1.7 5.2 0.00 0.00 0.00 55 1014.5
20260510190041 77 70 1.7 5.2 0.00 0.00 0.00 55 1016.1
20260510185813 78 38 1.7 5.2 0.00 0.00 0.00 58 1016.8
20260510185321 78 344 0.9 5.2 0.00 0.00 0.00 59 1016.6
20260510184811 77 57 1.7 5.2 0.00 0.00 0.00 59 1016.8
20260510184540 77 315 0.9 6.1 0.00 0.00 0.00 58 1014.6
20260510184522 77 323 1.7 3.5 0.00 0.00 0.00 59 1016.2
20260510184341 77 36 0.9 6.1 0.00 0.00 0.00 59 1016.8
20260510183829 77 26 0.9 6.1 0.00 0.00 0.00 60 1016.8
20260510183310 76 238 0.9 6.1 0.00 0.00 0.00 60 1016.7
20260510183051 76 182 0.0 6.1 0.00 0.00 0.00 61 1016.1
20260510183039 76 179 0.0 7.0 0.00 0.00 0.00 61 1014.4
20260510182819 76 25 1.7 6.1 0.00 0.00 0.00 61 1016.7
20260510182328 76 61 1.7 7.0 0.00 0.00 0.00 61 1016.6
20260510181836 75 252 1.7 6.1 0.00 0.00 0.00 64 1016.6
20260510181544 74 79 1.7 3.5 0.00 0.00 0.00 62 1016.0
20260510181538 74 128 1.7 5.2 0.00 0.00 0.00 61 1014.4
20260510181345 75 315 1.7 4.3 0.00 0.00 0.00 62 1016.6
20260510180834 75 60 0.9 4.3 0.00 0.00 0.00 61 1016.5
20260510180313 74 150 0.9 4.3 0.00 0.00 0.00 64 1016.5
20260510180053 73 329 0.0 4.3 0.00 0.00 0.00 64 1015.9
20260510180036 73 0 0.9 4.3 0.00 0.00 0.00 64 1014.3
20260510175850 74 360 2.6 4.3 0.00 0.00 0.00 64 1016.5
20260510175313 74 35 0.9 3.5 0.00 0.00 0.00 64 1016.4
20260510174822 73 5 0.0 2.6 0.00 0.00 0.00 65 1016.4
20260510174535 72 0 0.9 2.6 0.00 0.00 0.00 66 1014.4
20260510174522 72 287 0.9 2.6 0.00 0.00 0.00 66 1015.9
20260510174332 73 254 0.9 2.6 0.00 0.00 0.00 65 1016.5
20260510173815 73 12 0.9 1.7 0.00 0.00 0.00 68 1016.4
20260510173324 72 360 0.9 1.7 0.00 0.00 0.00 66 1016.4
20260510173110 72 298 0.0 1.7 0.00 0.00 0.00 66 1015.8
20260510173039 71 0 0.0 1.7 0.00 0.00 0.00 66 1014.2
20260510172815 72 304 0.9 1.7 0.00 0.00 0.00 66 1016.4
20260510172323 72 177 0.9 1.7 0.00 0.00 0.00 65 1016.4
20260510171812 72 254 0.9 1.7 0.00 0.00 0.00 66 1016.3
20260510171537 71 0 0.0 4.3 0.00 0.00 0.00 66 1014.2
20260510171520 71 267 0.0 2.6 0.00 0.00 0.00 66 1015.7
20260510171321 72 267 0.0 4.3 0.00 0.00 0.00 65 1016.3
20260510170831 72 191 0.9 4.3 0.00 0.00 0.00 66 1016.4
20260510170314 72 40 0.9 2.6 0.00 0.00 0.00 65 1016.3
20260510170105 72 272 0.0 2.6 0.00 0.00 0.00 65 1015.8
20260510170038 72 110 0.0 2.6 0.00 0.00 0.00 65 1014.2
20260510165824 72 281 0.9 2.6 0.00 0.00 0.00 66 1016.4
20260510165312 72 319 0.0 1.7 0.00 0.00 0.00 67 1016.5
20260510164844 72 23 0.0 3.5 0.00 0.00 0.00 65 1016.5
20260510164540 72 331 0.0 5.2 0.00 0.00 0.00 66 1014.3
20260510164537 72 331 0.9 5.2 0.00 0.00 0.00 67 1015.9
20260510164333 72 200 0.0 5.2 0.00 0.00 0.00 66 1016.4
20260510163813 72 113 0.9 2.6 0.00 0.00 0.00 68 1016.4
20260510163323 72 73 0.9 3.5 0.00 0.00 0.00 70 1016.4
20260510163037 71 24 0.9 3.5 0.00 0.00 0.00 69 1014.2
20260510163012 71 69 0.9 3.5 0.00 0.00 0.00 70 1015.9
20260510162812 71 159 0.9 1.7 0.00 0.00 0.00 70 1016.4
20260510162320 71 305 0.0 1.7 0.00 0.00 0.00 71 1016.5
20260510161831 71 246 0.9 1.7 0.00 0.00 0.00 73 1016.4
20260510161546 71 237 0.0 0.9 0.00 0.00 0.00 73 1015.8
20260510161534 71 0 0.0 0.9 0.00 0.00 0.00 73 1014.2
20260510161317 71 246 0.0 0.0 0.00 0.00 0.00 74 1016.3
20260510160824 71 246 0.0 0.0 0.00 0.00 0.00 73 1016.3
20260510160314 72 246 0.0 0.0 0.00 0.00 0.00 71 1016.3
20260510160039 71 0 0.0 0.9 0.00 0.00 0.00 69 1014.1
20260510160023 71 246 0.0 0.9 0.00 0.00 0.00 69 1015.8
20260510155823 72 246 0.0 0.9 0.00 0.00 0.00 69 1016.2
20260510155334 73 246 0.0 0.9 0.00 0.00 0.00 66 1016.3
20260510154816 73 242 0.0 2.6 0.00 0.00 0.00 64 1016.4
20260510154553 73 242 0.0 2.6 0.00 0.00 0.00 63 1016.0
20260510154539 73 0 0.0 2.6 0.00 0.00 0.00 63 1014.3
20260510154325 73 242 0.9 2.6 0.00 0.00 0.00 62 1016.5
20260510153814 74 257 0.0 1.7 0.00 0.00 0.00 63 1016.1
20260510153324 74 306 0.0 0.0 0.00 0.00 0.00 62 1016.2
20260510153043 73 306 0.0 0.9 0.00 0.00 0.00 60 1015.4
20260510153037 73 0 0.0 0.9 0.00 0.00 0.00 60 1013.8
20260510152813 74 306 0.0 0.9 0.00 0.00 0.00 59 1015.8
20260510152324 74 234 0.0 0.9 0.00 0.00 0.00 59 1015.6
20260510151809 74 234 0.0 1.7 0.00 0.00 0.00 59 1015.6
20260510151602 74 234 0.0 2.6 0.00 0.00 0.00 56 1015.2
20260510151538 74 0 0.0 5.2 0.00 0.00 0.00 56 1013.7
20260510151318 75 250 0.0 5.2 0.00 0.00 0.00 56 1015.9
20260510150828 75 263 1.7 5.2 0.00 0.00 0.00 57 1016.0
20260510150317 75 207 0.9 3.5 0.00 0.00 0.00 57 1016.1
20260510150042 74 171 0.9 5.2 0.00 0.00 0.00 57 1013.9
20260510145819 75 227 1.7 5.2 0.00 0.00 0.00 59 1016.1
20260510145324 74 270 2.6 5.2 0.00 0.00 0.00 60 1016.0
20260510144833 74 80 0.9 4.3 0.00 0.00 0.00 60 1016.0
20260510144553 73 36 1.7 4.3 0.00 0.00 0.00 60 1015.4
20260510144549 73 312 1.7 5.2 0.00 0.00 0.00 60 1013.8
20260510144322 73 318 1.7 4.3 0.00 0.00 0.00 61 1015.9
20260510143812 73 299 0.9 5.2 0.00 0.00 0.00 60 1016.0
20260510143323 73 287 1.7 5.2 0.00 0.00 0.00 60 1016.0
20260510143041 73 240 0.9 6.1 0.00 0.00 0.00 64 1015.5
20260510143038 72 240 0.9 6.1 0.00 0.00 0.00 64 1013.8
20260510142851 73 237 1.7 6.1 0.00 0.00 0.00 61 1016.0
20260510142310 72 301 2.6 6.1 0.00 0.00 0.00 61 1016.1
20260510141819 72 209 1.7 5.2 0.00 0.00 0.00 63 1016.1
20260510141554 71 256 0.9 4.3 0.00 0.00 0.00 63 1015.6
20260510141538 71 104 1.7 5.2 0.00 0.00 0.00 62 1013.9
20260510141327 72 175 1.7 5.2 0.00 0.00 0.00 64 1016.1
20260510140835 71 220 1.7 5.2 0.00 0.00 0.00 62 1016.0
20260510140323 71 231 1.7 4.3 0.00 0.00 0.00 64 1016.1
20260510140040 70 189 1.7 4.3 0.00 0.00 0.00 64 1013.7
20260510140007 70 187 1.7 4.3 0.00 0.00 0.00 65 1015.5
20260510135811 71 151 0.9 2.6 0.00 0.00 0.00 64 1016.0
20260510135321 70 115 1.7 2.6 0.00 0.00 0.00 66 1016.0
20260510134826 70 293 0.9 3.5 0.00 0.00 0.00 67 1016.0
20260510134556 69 196 0.0 7.0 0.00 0.00 0.00 66 1015.5
20260510134545 69 0 0.9 7.0 0.00 0.00 0.00 64 1013.7
20260510134315 70 229 0.9 7.0 0.00 0.00 0.00 65 1016.0
20260510133826 70 176 1.7 4.3 0.00 0.00 0.00 68 1015.9
20260510133334 69 185 3.5 7.0 0.00 0.00 0.00 71 1015.6
20260510133036 68 164 1.7 7.8 0.00 0.00 0.00 72 1013.5
20260510133034 68 255 1.7 7.0 0.00 0.00 0.00 72 1015.2
20260510132815 68 202 1.7 7.8 0.00 0.00 0.00 73 1015.6
20260510132322 67 142 1.7 7.8 0.00 0.00 0.00 77 1015.6
20260510131810 66 249 1.7 5.2 0.00 0.00 0.00 81 1015.9
20260510131558 65 140 0.9 7.0 0.00 0.00 0.00 82 1015.4
20260510131534 65 197 0.9 7.8 0.00 0.00 0.00 82 1013.6
20260510131337 65 186 2.6 7.0 0.00 0.00 0.00 83 1016.0
20260510130825 64 165 2.6 7.8 0.00 0.00 0.00 88 1016.0
20260510130314 62 156 1.7 4.3 0.00 0.00 0.00 90 1016.0
20260510130038 62 229 0.0 4.3 0.00 0.00 0.00 91 1013.8
20260510130012 62 256 0.0 3.5 0.00 0.00 0.00 92 1015.6
20260510125822 62 196 0.0 3.5 0.00 0.00 0.00 93 1016.0
20260510125330 61 188 1.7 5.2 0.00 0.00 0.00 94 1015.9
20260510124837 61 227 1.7 5.2 0.00 0.00 0.00 94 1015.8
20260510124546 60 167 0.9 4.3 0.00 0.00 0.00 94 1013.6
20260510124540 60 172 1.7 6.1 0.00 0.00 0.00 94 1015.5
20260510124318 60 217 1.7 3.5 0.00 0.00 0.00 95 1015.9
20260510123826 60 202 0.9 1.7 0.00 0.00 0.00 95 1015.9
20260510123314 59 162 0.9 3.5 0.00 0.00 0.00 95 1016.0
20260510123037 58 131 0.9 4.3 0.00 0.00 0.00 94 1013.7
20260510123021 58 131 0.9 3.5 0.00 0.00 0.00 95 1015.5
20260510122823 58 142 0.9 4.3 0.00 0.00 0.00 94 1016.0
20260510122331 57 182 1.7 4.3 0.00 0.00 0.00 94 1015.9
20260510121814 56 184 1.7 2.6 0.00 0.00 0.00 94 1015.9
20260510121558 55 166 0.9 2.6 0.00 0.00 0.00 94 1015.4
20260510121536 55 180 0.9 3.5 0.00 0.00 0.00 94 1013.6
20260510121322 55 200 0.9 2.6 0.00 0.00 0.00 94 1015.9
20260510120810 54 167 0.9 1.7 0.00 0.00 0.00 93 1015.9
20260510120340 54 175 0.9 1.7 0.00 0.00 0.00 92 1015.7
20260510120040 53 0 0.0 0.0 0.00 0.00 0.00 92 1013.5
20260510120022 53 175 0.0 0.0 0.00 0.00 0.00 92 1015.3
20260510115827 53 175 0.0 0.0 0.00 0.00 0.00 92 1015.7
20260510115337 52 175 0.0 1.7 0.00 0.00 0.00 92 1015.6
20260510114844 52 175 0.0 2.6 0.00 0.00 0.00 91 1015.5
20260510114533 51 175 0.9 3.5 0.00 0.00 0.00 91 1013.3
20260510114529 51 175 0.9 2.6 0.00 0.00 0.00 91 1015.1
20260510114332 52 175 1.7 2.6 0.00 0.00 0.00 91 1015.4
20260510113815 51 180 0.9 1.7 0.00 0.00 0.00 91 1015.5
20260510113323 51 180 0.0 1.7 0.00 0.00 0.00 91 1015.4
20260510113038 50 0 0.0 1.7 0.00 0.00 0.00 90 1013.1
20260510113009 50 185 0.0 1.7 0.00 0.00 0.00 90 1014.9
20260510112812 50 140 0.0 1.7 0.00 0.00 0.00 90 1015.2
20260510112315 50 108 0.0 0.0 0.00 0.00 0.00 90 1015.1
20260510111853 50 37 0.0 0.9 0.00 0.00 0.00 90 1015.0
20260510111551 50 0 0.0 0.9 0.00 0.00 0.00 89 1012.8
20260510111537 50 158 0.0 0.9 0.00 0.00 0.00 90 1014.5
20260510111315 50 146 0.0 0.9 0.00 0.00 0.00 90 1014.8
20260510110824 50 146 0.0 0.0 0.00 0.00 0.00 90 1014.8
20260510110317 50 146 0.0 0.0 0.00 0.00 0.00 90 1014.8
20260510110037 49 0 0.0 0.0 0.00 0.00 0.00 89 1012.7
20260510110030 49 146 0.0 0.0 0.00 0.00 0.00 89 1014.4
20260510105825 49 146 0.0 0.0 0.00 0.00 0.00 89 1014.6
20260510105310 49 146 0.0 0.0 0.00 0.00 0.00 89 1014.6
20260510104818 50 146 0.0 0.0 0.00 0.00 0.00 89 1014.5
20260510104619 49 146 0.0 0.0 0.00 0.00 0.00 89 1014.2
20260510104545 49 0 0.0 0.0 0.00 0.00 0.00 89 1012.3
20260510104327 50 146 0.0 0.0 0.00 0.00 0.00 89 1014.5
20260510103816 50 146 0.0 0.0 0.00 0.00 0.00 89 1014.5
20260510103326 50 146 0.0 0.0 0.00 0.00 0.00 89 1014.4
20260510103043 49 137 0.0 0.0 0.00 0.00 0.00 89 1013.9
20260510103038 49 0 0.0 0.9 0.00 0.00 0.00 89 1012.2
20260510102835 50 165 0.0 0.0 0.00 0.00 0.00 89 1014.4
20260510102343 50 263 0.0 0.9 0.00 0.00 0.00 89 1014.4
20260510101833 50 289 0.0 0.0 0.00 0.00 0.00 89 1014.4
20260510101537 50 325 0.0 0.0 0.00 0.00 0.00 89 1014.1
20260510101535 50 0 0.0 0.0 0.00 0.00 0.00 89 1012.2
20260510101315 50 337 0.0 0.0 0.00 0.00 0.00 89 1014.4
20260510100823 50 337 0.0 0.0 0.00 0.00 0.00 89 1014.3
20260510100332 50 337 0.0 0.0 0.00 0.00 0.00 89 1014.2
20260510100058 50 337 0.0 0.0 0.00 0.00 0.00 89 1013.8
20260510100032 50 0 0.0 0.0 0.00 0.00 0.00 89 1011.9
20260510095842 50 337 0.0 0.0 0.00 0.00 0.00 89 1014.1
20260510095310 50 196 0.0 2.6 0.00 0.00 0.00 89 1014.0
20260510094818 50 191 0.0 2.6 0.00 0.00 0.00 89 1013.8
20260510094540 50 219 0.9 3.5 0.00 0.00 0.00 88 1011.6
20260510094520 50 219 0.9 2.6 0.00 0.00 0.00 89 1013.4
20260510094327 50 207 0.9 3.5 0.00 0.00 0.00 89 1013.8
20260510093809 50 204 0.0 0.0 0.00 0.00 0.00 89 1013.8
20260510093318 50 213 0.0 0.0 0.00 0.00 0.00 89 1013.8
20260510093059 50 213 0.0 0.0 0.00 0.00 0.00 89 1013.3
20260510093037 50 0 0.0 0.0 0.00 0.00 0.00 88 1011.5
20260510092827 50 213 0.0 0.0 0.00 0.00 0.00 89 1013.8
20260510092316 50 250 0.0 0.0 0.00 0.00 0.00 89 1013.7
20260510091845 51 250 0.0 0.0 0.00 0.00 0.00 89 1013.6
20260510091536 50 0 0.0 0.0 0.00 0.00 0.00 88 1011.5
20260510091524 50 250 0.0 0.0 0.00 0.00 0.00 89 1013.3
20260510091333 51 250 0.0 0.0 0.00 0.00 0.00 89 1013.6
20260510090843 51 250 0.0 0.0 0.00 0.00 0.00 89 1013.6
20260510090324 51 250 0.0 0.0 0.00 0.00 0.00 89 1013.6
20260510090057 50 252 0.0 0.0 0.00 0.00 0.00 89 1013.1
20260510090036 50 0 0.0 0.0 0.00 0.00 0.00 88 1011.3
20260510085814 51 265 0.0 0.0 0.00 0.00 0.00 89 1013.5
20260510085324 51 261 0.0 0.0 0.00 0.00 0.00 89 1013.4
20260510084834 51 262 0.0 0.0 0.00 0.00 0.00 89 1013.5
20260510084539 51 270 0.0 0.0 0.00 0.00 0.00 89 1013.1
20260510084536 51 0 0.0 0.0 0.00 0.00 0.00 88 1011.3
20260510084316 51 236 0.0 0.0 0.00 0.00 0.00 89 1013.3
20260510083823 51 236 0.0 0.0 0.00 0.00 0.00 89 1013.4
20260510083313 51 236 0.0 0.0 0.00 0.00 0.00 89 1013.3
20260510083037 51 0 0.0 0.0 0.00 0.00 0.00 88 1011.1
20260510083008 51 236 0.0 0.0 0.00 0.00 0.00 89 1012.8
20260510082824 51 236 0.0 0.0 0.00 0.00 0.00 89 1013.1
20260510082332 51 236 0.0 0.0 0.00 0.00 0.00 89 1013.2
20260510081840 52 190 0.0 0.0 0.00 0.00 0.00 89 1013.1
20260510081542 51 0 0.0 0.0 0.00 0.00 0.00 88 1011.0
20260510081535 51 182 0.0 0.0 0.00 0.00 0.00 89 1012.8
20260510081321 52 182 0.0 0.0 0.00 0.00 0.00 89 1013.2
20260510080827 52 182 0.0 0.9 0.00 0.00 0.00 89 1013.1
20260510080335 52 182 0.0 1.7 0.00 0.00 0.00 89 1013.1
20260510080049 51 182 0.0 1.7 0.00 0.00 0.00 89 1012.6
20260510080039 51 0 0.0 1.7 0.00 0.00 0.00 88 1010.9
20260510075822 52 182 0.9 1.7 0.00 0.00 0.00 89 1013.0
20260510075312 52 182 0.9 2.6 0.00 0.00 0.00 89 1013.0
20260510074823 52 182 0.9 2.6 0.00 0.00 0.00 89 1012.9
20260510074537 52 0 0.0 2.6 0.00 0.00 0.00 88 1010.7
20260510074527 52 206 0.0 1.7 0.00 0.00 0.00 88 1012.6
20260510074333 52 202 0.9 2.6 0.00 0.00 0.00 89 1013.0
20260510073820 52 190 0.9 2.6 0.00 0.00 0.00 88 1013.0
20260510073330 52 182 0.9 1.7 0.00 0.00 0.00 89 1012.9
20260510073040 52 173 0.9 2.6 0.00 0.00 0.00 89 1012.5
20260510073035 52 190 0.9 2.6 0.00 0.00 0.00 88 1010.7
20260510072812 52 190 0.9 2.6 0.00 0.00 0.00 89 1013.0
20260510072322 53 215 1.7 2.6 0.00 0.00 0.00 89 1013.0
20260510071812 52 221 0.9 2.6 0.00 0.00 0.00 89 1013.0
20260510071533 52 225 0.9 2.6 0.00 0.00 0.00 88 1010.7
20260510071505 52 225 0.9 2.6 0.00 0.00 0.00 88 1012.6
20260510071342 52 185 0.9 2.6 0.00 0.00 0.00 88 1013.0
20260510070810 52 213 0.9 2.6 0.00 0.00 0.00 88 1013.0
20260510070320 52 228 0.9 2.6 0.00 0.00 0.00 88 1013.1
20260510070035 52 223 0.9 2.6 0.00 0.00 0.00 87 1010.7
20260510070028 52 223 0.9 2.6 0.00 0.00 0.00 88 1012.6
20260510065829 52 219 0.9 2.6 0.00 0.00 0.00 88 1013.0
20260510065312 52 198 1.7 2.6 0.00 0.00 0.00 88 1012.9
20260510064822 52 202 1.7 2.6 0.00 0.00 0.00 88 1013.0
20260510064537 52 204 0.9 2.6 0.00 0.00 0.00 87 1010.7
20260510064504 52 204 0.9 2.6 0.00 0.00 0.00 88 1012.6
20260510064312 52 203 1.7 2.6 0.00 0.00 0.00 88 1013.1
20260510063821 52 225 0.9 2.6 0.00 0.00 0.00 88 1013.2
20260510063332 52 219 0.9 2.6 0.00 0.00 0.00 88 1013.1
20260510063043 52 214 0.9 2.6 0.00 0.00 0.00 88 1012.6
20260510063039 52 240 0.9 2.6 0.00 0.00 0.00 87 1010.9
20260510062841 52 240 1.7 2.6 0.00 0.00 0.00 88 1013.1
20260510062332 52 225 0.9 2.6 0.00 0.00 0.00 87 1013.1
20260510061813 52 226 0.9 2.6 0.00 0.00 0.00 87 1013.0
20260510061543 52 229 0.9 2.6 0.00 0.00 0.00 87 1012.6
20260510061538 52 229 0.9 2.6 0.00 0.00 0.00 87 1010.8
20260510061321 52 235 1.7 2.6 0.00 0.00 0.00 87 1013.1
20260510060812 52 240 1.7 2.6 0.00 0.00 0.00 87 1013.1
20260510060322 52 224 0.0 0.0 0.00 0.00 0.00 87 1013.1
20260510060047 52 0 0.0 0.0 0.00 0.00 0.00 86 1010.9
20260510060034 52 216 0.0 0.0 0.00 0.00 0.00 87 1012.7
20260510055832 52 216 0.0 0.0 0.00 0.00 0.00 87 1013.1
20260510055315 52 202 0.0 0.0 0.00 0.00 0.00 87 1013.2
20260510054809 53 204 0.0 0.0 0.00 0.00 0.00 87 1013.1
20260510054534 52 0 0.0 1.7 0.00 0.00 0.00 86 1010.9
20260510054523 52 204 0.0 0.0 0.00 0.00 0.00 87 1012.8
20260510054319 53 226 0.0 1.7 0.00 0.00 0.00 87 1013.2
20260510053821 53 239 0.0 2.6 0.00 0.00 0.00 87 1013.2
20260510053328 53 239 1.7 2.6 0.00 0.00 0.00 87 1013.3
20260510053033 53 242 0.9 2.6 0.00 0.00 0.00 86 1011.0
20260510053003 53 229 0.9 2.6 0.00 0.00 0.00 87 1012.9
20260510052816 53 209 0.9 2.6 0.00 0.00 0.00 87 1013.4
20260510052326 53 229 0.9 1.7 0.00 0.00 0.00 87 1013.4
20260510051809 53 243 0.9 1.7 0.00 0.00 0.00 87 1013.5
20260510051600 53 219 0.0 0.0 0.00 0.00 0.00 87 1013.1
20260510051545 53 0 0.0 0.0 0.00 0.00 0.00 86 1011.1
20260510051338 53 219 0.0 0.0 0.00 0.00 0.00 86 1013.5
20260510050855 53 219 0.0 0.0 0.00 0.00 0.00 86 1013.6
20260510050316 53 218 0.0 0.0 0.00 0.00 0.00 86 1013.5
20260510050050 53 214 0.0 0.0 0.00 0.00 0.00 86 1013.2
20260510050039 53 0 0.0 0.0 0.00 0.00 0.00 86 1011.2
20260510045826 53 214 0.0 0.0 0.00 0.00 0.00 86 1013.6
20260510045315 53 238 0.0 0.0 0.00 0.00 0.00 86 1013.5
20260510044825 53 218 0.0 0.0 0.00 0.00 0.00 86 1013.4
20260510044538 53 0 0.0 0.0 0.00 0.00 0.00 85 1011.2
20260510044531 53 218 0.0 0.0 0.00 0.00 0.00 86 1013.0
20260510044334 53 229 0.0 0.0 0.00 0.00 0.00 86 1013.5
20260510043815 53 229 0.0 0.0 0.00 0.00 0.00 86 1013.5
20260510043325 53 229 0.0 0.0 0.00 0.00 0.00 85 1013.5
20260510043042 53 0 0.0 0.0 0.00 0.00 0.00 85 1011.4
20260510043007 53 229 0.0 0.0 0.00 0.00 0.00 85 1013.1
20260510042813 54 229 0.0 0.0 0.00 0.00 0.00 85 1013.5
20260510042322 54 233 0.0 0.0 0.00 0.00 0.00 85 1013.4
20260510041824 54 224 0.0 0.0 0.00 0.00 0.00 85 1013.5
20260510041607 53 224 0.0 0.0 0.00 0.00 0.00 85 1013.1
20260510041534 53 0 0.0 0.0 0.00 0.00 0.00 85 1011.2
20260510041313 54 224 0.0 0.0 0.00 0.00 0.00 85 1013.5
20260510040823 54 224 0.0 0.9 0.00 0.00 0.00 85 1013.5
20260510040331 54 224 0.0 1.7 0.00 0.00 0.00 85 1013.5
20260510040042 54 224 0.0 2.6 0.00 0.00 0.00 85 1013.0
20260510040039 54 224 0.0 2.6 0.00 0.00 0.00 84 1011.2
20260510035840 54 224 0.9 2.6 0.00 0.00 0.00 85 1013.4
20260510035321 54 230 1.7 2.6 0.00 0.00 0.00 85 1013.4
20260510034812 54 239 1.7 1.7 0.00 0.00 0.00 85 1013.4
20260510034544 54 239 0.0 1.7 0.00 0.00 0.00 84 1011.2
20260510034505 54 239 0.0 1.7 0.00 0.00 0.00 84 1013.0
20260510034340 55 239 0.0 1.7 0.00 0.00 0.00 84 1013.4
20260510033827 55 239 0.9 2.6 0.00 0.00 0.00 84 1013.4
20260510033315 55 238 0.9 2.6 0.00 0.00 0.00 84 1013.4
20260510033041 54 242 0.0 2.6 0.00 0.00 0.00 83 1011.1
20260510033022 54 242 0.0 2.6 0.00 0.00 0.00 84 1012.9
20260510032824 55 227 0.0 0.0 0.00 0.00 0.00 84 1013.2
20260510032335 55 227 0.0 0.0 0.00 0.00 0.00 84 1013.2
20260510031817 55 227 0.0 0.0 0.00 0.00 0.00 84 1013.2
20260510031607 55 0 0.0 0.0 0.00 0.00 0.00 83 1010.9
20260510031602 55 227 0.0 0.0 0.00 0.00 0.00 83 1012.8
20260510031325 55 226 0.0 0.0 0.00 0.00 0.00 83 1013.1
20260510030837 56 226 0.0 0.0 0.00 0.00 0.00 83 1013.2
20260510030325 56 226 0.0 0.0 0.00 0.00 0.00 83 1013.1
20260510030038 55 0 0.0 0.0 0.00 0.00 0.00 82 1010.8
20260510030007 56 226 0.0 0.0 0.00 0.00 0.00 82 1012.6
20260510025812 56 226 0.0 0.0 0.00 0.00 0.00 82 1013.0
20260510025320 56 226 0.0 0.0 0.00 0.00 0.00 82 1012.9
20260510024830 57 226 0.0 0.0 0.00 0.00 0.00 81 1012.8
20260510024553 56 226 0.0 0.0 0.00 0.00 0.00 81 1012.3
20260510024538 56 0 0.0 0.0 0.00 0.00 0.00 81 1010.5
20260510024313 57 226 0.0 0.0 0.00 0.00 0.00 81 1012.7
20260510023821 57 238 0.0 0.0 0.00 0.00 0.00 81 1012.8
20260510023356 57 238 0.0 1.7 0.00 0.00 0.00 80 1012.8
20260510023052 57 238 0.0 1.7 0.00 0.00 0.00 80 1012.3
20260510023048 57 0 0.0 1.7 0.00 0.00 0.00 80 1010.6
20260510022818 57 238 0.9 1.7 0.00 0.00 0.00 80 1012.7
20260510022347 58 238 0.9 1.7 0.00 0.00 0.00 80 1012.7
20260510021815 58 238 0.9 1.7 0.00 0.00 0.00 79 1012.5
20260510021543 58 238 0.0 2.6 0.00 0.00 0.00 78 1010.4
20260510021519 58 238 0.0 2.6 0.00 0.00 0.00 79 1012.1
20260510021324 58 238 0.9 2.6 0.00 0.00 0.00 79 1012.5
20260510020834 59 238 1.7 2.6 0.00 0.00 0.00 78 1012.5
20260510020317 59 238 0.9 2.6 0.00 0.00 0.00 78 1012.4
20260510020037 59 0 0.0 2.6 0.00 0.00 0.00 77 1010.1
20260510020010 58 238 0.0 2.6 0.00 0.00 0.00 78 1011.8
20260510015828 59 238 0.9 2.6 0.00 0.00 0.00 78 1012.3
20260510015311 59 234 0.9 2.6 0.00 0.00 0.00 77 1012.2
20260510014821 60 234 0.9 2.6 0.00 0.00 0.00 77 1012.2
20260510014606 59 191 0.9 1.7 0.00 0.00 0.00 76 1011.7
20260510014535 59 191 0.0 1.7 0.00 0.00 0.00 76 1010.0
20260510014310 60 192 0.0 1.7 0.00 0.00 0.00 76 1012.0
20260510013839 60 186 0.0 1.7 0.00 0.00 0.00 75 1011.9
20260510013324 60 176 0.0 0.9 0.00 0.00 0.00 75 1011.8
20260510013107 60 176 0.0 1.7 0.00 0.00 0.00 74 1011.2
20260510013038 60 0 0.0 1.7 0.00 0.00 0.00 74 1009.6
20260510012814 61 176 0.0 1.7 0.00 0.00 0.00 74 1011.6
20260510012324 61 176 0.0 1.7 0.00 0.00 0.00 74 1011.5
20260510011809 62 174 0.0 1.7 0.00 0.00 0.00 73 1011.6
20260510011548 62 0 0.0 1.7 0.00 0.00 0.00 72 1009.3
20260510011317 62 174 0.0 1.7 0.00 0.00 0.00 72 1011.3
20260510010315 63 174 0.0 0.9 0.00 0.00 0.00 70 1011.4
20260510010044 63 174 0.0 0.9 0.00 0.00 0.00 69 1009.3
20260510010011 63 174 0.0 0.9 0.00 0.00 0.00 69 1010.9
20260510005846 64 174 0.0 0.9 0.00 0.00 0.00 69 1011.4
20260510005313 64 174 0.0 1.7 0.00 0.00 0.00 69 1011.3
20260510004823 65 174 0.0 1.7 0.00 0.00 0.00 67 1011.3
20260510004539 64 174 0.0 1.7 0.00 0.00 0.00 67 1010.8
20260510004537 64 0 0.0 1.7 0.00 0.00 0.00 66 1009.4
20260510004309 65 174 0.0 1.7 0.00 0.00 0.00 66 1011.2
20260510003818 65 174 0.9 1.7 0.00 0.00 0.00 66 1011.2
20260510003328 66 174 0.0 1.7 0.00 0.00 0.00 65 1011.0
20260510003038 65 0 0.0 1.7 0.00 0.00 0.00 64 1009.1
20260510003016 65 174 0.0 1.7 0.00 0.00 0.00 65 1010.5
20260510002817 66 174 0.0 1.7 0.00 0.00 0.00 65 1011.0
20260510002322 66 182 0.0 1.7 0.00 0.00 0.00 64 1011.0
20260510001810 66 182 0.0 2.6 0.00 0.00 0.00 64 1010.8
20260510001536 66 0 0.0 3.5 0.00 0.00 0.00 63 1008.8
20260510001506 66 190 0.0 2.6 0.00 0.00 0.00 64 1010.3
20260510001340 67 173 0.9 2.6 0.00 0.00 0.00 64 1010.8
20260510000830 67 190 0.9 2.6 0.00 0.00 0.00 63 1010.8
20260510000319 67 209 0.9 1.7 0.00 0.00 0.00 63 1010.7
20260510000037 67 0 0.0 1.7 0.00 0.00 0.00 62 1008.7
20260510000023 67 188 0.9 1.7 0.00 0.00 0.00 62 1010.2
20260509235828 67 200 0.0 0.9 0.00 0.00 0.00 62 1010.7
20260509235310 68 198 0.0 1.7 0.00 0.00 0.00 61 1010.6
20260509234846 68 236 0.9 2.6 0.00 0.00 0.00 61 1010.5
20260509234558 68 240 0.0 2.6 0.00 0.00 0.00 61 1010.1
20260509234536 68 0 0.0 2.6 0.00 0.00 0.00 61 1008.5
20260509234327 68 234 0.0 2.6 0.00 0.00 0.00 62 1010.5
20260509233817 68 191 0.9 5.2 0.00 0.00 0.00 61 1010.6
20260509233327 69 236 0.9 5.2 0.00 0.00 0.00 61 1010.5
20260509233037 68 192 0.9 4.3 0.00 0.00 0.00 58 1008.5
20260509233029 68 133 0.9 3.5 0.00 0.00 0.00 59 1010.0
20260509232810 69 236 1.7 3.5 0.00 0.00 0.00 59 1010.5
20260509232321 69 210 0.0 4.3 0.00 0.00 0.00 59 1010.5
20260509231810 69 229 1.7 4.3 0.00 0.00 0.00 58 1010.5
20260509231539 69 261 1.7 5.2 0.00 0.00 0.00 57 1008.6
20260509231528 69 257 1.7 4.3 0.00 0.00 0.00 58 1010.1
20260509231318 69 211 1.7 5.2 0.00 0.00 0.00 58 1010.6
20260509230823 70 159 0.0 5.2 0.00 0.00 0.00 57 1010.4
20260509230311 70 248 1.7 3.5 0.00 0.00 0.00 57 1010.5
20260509230039 69 219 1.7 5.2 0.00 0.00 0.00 57 1008.5
20260509230008 69 209 1.7 5.2 0.00 0.00 0.00 58 1010.1
20260509225820 70 230 2.6 5.2 0.00 0.00 0.00 57 1010.5